START_TIME,STEP,MOV.,M29,t_acc.,H22,t_acc.,H26,t_acc.,H30,t_acc.
1979-07-19 18:00:31.730 ,1,1,0.,24.0,0.,24.0,0.,24.0,0.,24.0
1979-07-19 18:00:55.730 ,2,1,0.,24.0,0.,24.0,0.,24.0,0.,24.0
1979-07-19 18:01:19.730 ,6,1,0.,24.0,0.,24.0,0.,24.0,0.,24.0
1979-07-19 18:01:43.730 ,5,1,0.,24.0,0.,24.0,0.,24.0,0.,24.0
1979-07-19 18:02:07.730 ,1,1,0.,24.0,0.,24.0,0.,24.0,0.,24.0
1979-07-19 18:02:31.730 ,2,1,0.,24.0,0.,24.0,0.,24.0,0.,24.0
1979-07-19 18:02:55.730 ,6,1,0.,24.0,0.,24.0,0.,24.0,0.,24.0
1979-07-19 18:03:19.730 ,5,1,0.,24.0,0.,24.0,0.,24.0,0.,24.0
1979-07-19 18:03:43.730 ,1,1,0.,24.0,0.,24.0,0.,24.0,0.,24.0
1979-07-19 18:04:07.730 ,2,1,0.,24.0,0.,24.0,0.,24.0,0.,24.0
1979-07-19 18:04:31.730 ,6,1,0.,24.0,0.,24.0,0.,24.0,0.,24.0
1979-07-19 18:04:55.730 ,5,1,0.,24.0,0.,24.0,0.,24.0,0.,24.0
1979-07-19 18:05:19.730 ,1,1,0.,24.0,0.,24.0,0.,24.0,0.,24.0
1979-07-19 18:05:43.730 ,0,0,0.,24.0,0.,24.0,0.,24.0,0.,24.0
1979-07-19 18:06:07.730 ,0,0,0.,24.0,0.,24.0,0.,24.0,0.,24.0
1979-07-19 18:06:31.730 ,5,1,0.,24.0,0.,24.0,0.,24.0,0.,24.0
1979-07-19 18:06:55.730 ,5,0,0.,24.0,0.,24.0,0.,24.0,0.,24.0
1979-07-19 18:07:19.730 ,0,0,0.,24.0,0.,24.0,0.,24.0,0.,24.0
1979-07-19 18:07:43.730 ,0,0,,0,,0,,0,,0
1979-07-19 18:09:27.530 ,0,0,0.,24.0,0.,24.0,0.,24.0,0.,24.0
1979-07-19 18:09:43.730 ,1,1,0.,24.0,0.,24.0,0.,24.0,0.,24.0
1979-07-19 18:10:07.730 ,1,0,0.,24.0,0.,24.0,0.,24.0,0.,24.0
1979-07-19 18:10:31.730 ,0,1,0.,24.0,0.,24.0,0.,24.0,0.,24.0
1979-07-19 18:10:55.730 ,0,0,0.,24.0,0.,24.0,0.,24.0,0.,24.0
1979-07-19 18:11:19.730 ,0,1,0.,24.0,0.,24.0,0.,24.0,0.,24.0
1979-07-19 18:11:43.730 ,0,0,0.,24.0,0.,24.0,0.,24.0,0.,24.0
1979-07-19 18:12:07.730 ,1,1,0.,24.0,0.,24.0,0.,24.0,0.,24.0
1979-07-19 18:12:31.730 ,1,0,0.,24.0,0.,24.0,0.,24.0,0.,24.0
1979-07-19 18:12:55.730 ,2,1,0.,24.0,0.,24.0,0.,24.0,0.,24.0
1979-07-19 18:13:19.730 ,2,0,0.,24.0,0.,24.0,0.,24.0,0.,24.0
1979-07-19 18:13:43.730 ,3,1,0.,24.0,0.,24.0,0.,24.0,0.,24.0
1979-07-19 18:14:07.730 ,3,0,0.,24.0,0.,24.0,0.,24.0,0.,24.0
1979-07-19 18:14:31.730 ,4,1,0.,24.0,0.,24.0,0.,24.0,0.,24.0
1979-07-19 18:14:55.730 ,4,0,0.,24.0,0.,24.0,0.,24.0,0.,24.0
1979-07-19 18:15:19.730 ,5,1,0.,24.0,0.,24.0,0.,24.0,0.,24.0
1979-07-19 18:15:43.730 ,5,0,0.,24.0,0.,24.0,0.,24.0,0.,24.0
1979-07-19 18:16:07.730 ,6,1,0.,24.0,0.,24.0,0.,24.0,0.,24.0
1979-07-19 18:16:31.730 ,6,0,0.,24.0,0.,24.0,0.,24.0,0.,24.0
1979-07-19 18:16:55.730 ,7,1,0.,24.0,0.,24.0,0.,24.0,0.,24.0
1979-07-19 18:17:19.730 ,7,0,0.,24.0,0.,24.0,0.,24.0,0.,24.0
1979-07-19 18:17:43.730 ,7,1,0.,24.0,0.,24.0,0.,24.0,0.,24.0
1979-07-19 18:18:07.730 ,7,0,0.,24.0,0.,24.0,0.,24.0,0.,24.0
1979-07-19 18:18:31.730 ,6,1,0.,24.0,0.,24.0,0.,24.0,0.,24.0
1979-07-19 18:18:55.730 ,6,0,0.,24.0,0.,24.0,0.,24.0,0.,24.0
1979-07-19 18:19:19.730 ,5,1,0.,24.0,0.,24.0,0.,24.0,0.,24.0
1979-07-19 18:19:43.730 ,5,0,0.,24.0,0.,24.0,0.,24.0,0.,24.0
1979-07-19 18:20:07.730 ,4,1,0.,24.0,0.,24.0,0.,24.0,0.,24.0
1979-07-19 18:20:31.730 ,4,0,0.,24.0,0.,24.0,0.,24.0,0.,24.0
1979-07-19 18:20:55.730 ,3,1,0.,24.0,0.,24.0,0.,24.0,0.,24.0
1979-07-19 18:21:19.730 ,3,0,0.,24.0,0.,24.0,0.,24.0,0.,24.0
1979-07-19 18:21:43.730 ,2,1,0.,24.0,0.,24.0,0.,24.0,0.,24.0
1979-07-19 18:22:07.730 ,2,0,0.,24.0,0.,24.0,0.,24.0,0.,24.0
1979-07-19 18:22:31.730 ,1,1,0.,24.0,0.,24.0,0.,24.0,0.,24.0
1979-07-19 18:22:55.730 ,1,0,0.,24.0,0.,24.0,0.,24.0,0.,24.0
1979-07-19 18:23:19.730 ,0,1,0.,24.0,0.,24.0,0.,24.0,0.,24.0
1979-07-19 18:23:43.730 ,0,0,0.,24.0,0.,24.0,0.,24.0,0.,24.0
1979-07-19 18:24:07.730 ,0,1,0.,24.0,0.,24.0,0.,24.0,0.,24.0
1979-07-19 18:24:31.730 ,0,0,0.,24.0,0.,24.0,0.,24.0,0.,24.0
1979-07-19 18:24:55.730 ,1,1,0.,24.0,0.,24.0,0.,24.0,0.,24.0
1979-07-19 18:25:19.730 ,1,0,0.,24.0,0.,24.0,0.,24.0,0.,24.0
1979-07-19 18:25:43.730 ,2,1,0.,24.0,0.,24.0,0.,24.0,0.,24.0
1979-07-19 18:26:07.730 ,2,0,0.,24.0,0.,24.0,0.,24.0,0.,24.0
1979-07-19 18:26:31.730 ,3,1,0.,24.0,0.,24.0,0.,24.0,0.,24.0
1979-07-19 18:26:55.730 ,3,0,0.,24.0,0.,24.0,0.,24.0,0.,24.0
1979-07-19 18:27:19.730 ,4,1,0.,24.0,0.,24.0,0.,24.0,0.,24.0
1979-07-19 18:27:43.730 ,4,0,0.,24.0,0.,24.0,0.,24.0,0.,24.0
1979-07-19 18:28:07.730 ,5,1,0.,24.0,0.,24.0,0.,24.0,0.,24.0
1979-07-19 18:28:31.730 ,5,0,0.,24.0,0.,24.0,0.,24.0,0.,24.0
1979-07-19 18:28:55.730 ,6,1,0.,24.0,0.,24.0,0.,24.0,0.,24.0
1979-07-19 18:29:19.730 ,6,0,0.,24.0,0.,24.0,0.,24.0,0.,24.0
